Overview Statistics Trail Chart Weather Telemetry Raw packets
 

This is the latest recevied weather packets stored in our database for station/object K0QED. If no packets are shown the sender has not sent any weather packets the latest 10 day(s).

<< 101 102 103 104 105 106 107 >>
Time Temp. Humidity Pressure Rain* Wind** Luminosity Snow
1787865584 26.67° C 34% 1030.4 hPa 0 mm - 557 W/m² -
1787865278 26.67° C 33% 1030 hPa 0 mm - 569 W/m² -
1787864974 26.67° C 35% 1030.2 hPa 0 mm - 561 W/m² -
1787864670 26.67° C 35% 1030.4 hPa 0 mm - 609 W/m² -
1787864364 26.67° C 35% 1030.4 hPa 0 mm - 647 W/m² -
1787864063 26.67° C 34% 1030.2 hPa 0 mm - 650 W/m² -
1787863762 26.11° C 34% 1030.2 hPa 0 mm - 585 W/m² -
1787863461 25.56° C 37% 1030 hPa 0 mm - 616 W/m² -
1787863157 25° C 39% 1030.1 hPa 0 mm - 717 W/m² -
1787862853 23.33° C 43% 1030.2 hPa 0 mm - 687 W/m² -
1787862553 21.67° C 51% 1030.4 hPa 0 mm - 438 W/m² -
1787862253 21.11° C 47% 1030.7 hPa 0 mm - 127 W/m² -
1787861948 20.56° C 49% 1030.6 hPa 0 mm - 104 W/m² -
1787861648 20.56° C 50% 1031.2 hPa 0 mm - 87 W/m² -
1787861345 21.11° C 53% 1031.4 hPa 0 mm - 75 W/m² -
1787861041 21.67° C 56% 1031.6 hPa 0 mm - 81 W/m² -
1787860739 21.67° C 57% 1031.4 hPa 0 mm - 111 W/m² -
1787860435 21.67° C 53% 1031.6 hPa 0 mm - 119 W/m² -
1787860135 21.67° C 51% 1031.4 hPa 0 mm - 147 W/m² -
1787859830 21.67° C 60% 1031.2 hPa 0 mm - 172 W/m² -
1787859525 21.11° C 56% 1031.5 hPa 0 mm - 220 W/m² -
1787859219 20° C 65% 1031.2 hPa 0 mm - 364 W/m² -
1787858916 19.44° C 63% 1031.2 hPa 1.27 mm - 305 W/m² -
1787858612 20.56° C 63% 1031.2 hPa 1.27 mm - 196 W/m² -
1787858307 22.78° C 56% 1031.1 hPa 0 mm - 88 W/m² -

* Rain latest hour (hover to see other rain measurements)
** Current wind speed in m/s (hover to see current wind gust speed)